STARLINK-4763, 53805

Orbit data source: Space-Track

STARLINK-4763, 53805 is a payload satellite owned by SpaceX/Seattle (US) in LEO that was launched on Sun, 11 Sep 2022 UTC via an FALCON 9 launch vehicle from the Air Force Eastern Test Range (AFETR). Payload-class satellites include a variety of spacecraft equipped with specific instruments for various scientific and technological missions. These include communications satellites like Starlink; space stations such as the ISS; scientific satellites like the Hubble; Earth observation satellites from companies like Planet Labs, Umbra, and HawkEye 360; GPS; miniature CubeSats for education and research; and military/defense satellites.

Loading next visibility...
Identifier
53805, 2022-111AJ
Orbit
LEO
Last TLE update
17 hours ago
Origin
Manufacturer
SpaceX/Seattle
Mission
Operational Commercial Communications
Bus & Motor
STARLINK, Unknown motor
Mass
305 kg wet, ~290 kg dry
Launch date (UTC)
2022-09-11 (3 years ago)
Launch vehicle
FALCON 9
Launch site
Air Force Eastern Test Range (AFETR)
Object type
Payload
Rocket body
Debris
Shape & HBR
Box + 1 Pan, 8.86 m
Radar Cross Section
13.562 m², Large (>1 m²)

Expand to show TLE details & history

TLE from 17 hours ago
0 STARLINK-4763
1 53805U 22111AJ  25181.70438535 -.00000093  00000-0  12242-4 0  9998
2 53805  53.2182 300.4547 0001313  85.0245 275.0897 15.08845802155986
Epoch: 2025-06-30T16:54Z
TLE epoch observation values (Epoch: 2025-06-30T16:54:18.894Z)
Latitude
-0.00001°
Longitude
127.86559°
Altitude
540.543 km
Speed
7.593 km/s
True Right ascension
20h 01m 49s
True Declination
0° 00' 00"
Sunlit
Object was in full shadow at epoch
Visualization orbit readout
Latitude
-35.66567°
Longitude
92.38404°
Altitude
551.753 km
Speed
7.585 km/s
Apparent Right ascension
14h 11m 06s
Apparent Declination
-55° 48' 36"
Sunlit
Object is in full shadow
Visualization observer readout
Local Sidereal Time
21:49:38
Azimuth
226.534° WSW
Elevation
-45.267°
Doppler factor
1
Orbital elements
Apogee altitude
540.879 km
Perigee altitude
539.062 km
Semi-major axis
6,918.107 km
Eccentricity
0.00013
Inclination
53.2182°
RAAN
300.4547°
Arg. of periapsis
85.0245°
True anomaly
Unknown
Mean anomaly
275.0897°
Eccentric anomaly
Unknown
Mean motion
3.77192 °/min
Orbital period
95.44 mins
BSTAR
0.000012242
Loading maneuver chart data...
Loading SW <> Apogee altitude chart data...
Loading historical data...
Loading historical data...
Loading historical data...
Loading historical data...
Loading historical data...
Loading historical data...
Loading historical data...

STARLINK-4763 Visibility forecast

Observer location: undefined°, undefined°

Span
Click to sort rows by Start time (UTC) header in descending order
Start Az.
Max El. time (UTC)
Max El. Az.
Max El.
End time (UTC)
End Az.
7 mins2025-07-01 10:34:13.597Z223.328° SW2025-07-01 10:37:13.597Z163.259° S44.346°2025-07-01 10:41:13.597Z52.282° ENE
5 mins2025-07-01 12:15:13.597Z300.291° NW2025-07-01 12:17:13.597Z340.29° N20.593°2025-07-01 12:20:13.597Z28.706° NE
7 mins2025-07-01 17:15:13.597Z315.164° NNW2025-07-01 17:18:13.597Z40.037° NE43.761°2025-07-01 17:22:13.597Z124.238° SE
|